Change the Weather History Date:

Tuesday, January 22, 2013

  Actual Average Record
Temperature  
Mean Temperature 20 °F -  
Max Temperature 27 °F 41 °F 60 °F (1999)
Min Temperature 12 °F 23 °F 2 °F (2014)
Degree Days  
Heating Degree Days 44    
Moisture  
Dew Point -5 °F    
Average Humidity 33    
Maximum Humidity 66    
Minimum Humidity 20    
Precipitation  
Precipitation 0.00 in - - ()
Sea Level Pressure  
Sea Level Pressure 30.13 in    
Wind  
Wind Speed 7 mph (WNW)    
Max Wind Speed 18 mph    
Max Gust Speed 24 mph    
Visibility 10 miles    
Events      
Averages and records for this station are not official NWS values.
T = Trace of Precipitation, MM = Missing Value Source: NWS Daily Summary

Daily Weather History Graph

Daily Weather History Graph

Search for Another Location

Airport or City:

Trip Planner

Search our weather history database for the weather conditions in past years. The results will help you decide how hot, cold, wet, or windy it might be!

Date:

Astronomy

Jan. 22, 2013 Rise Set
Actual Time 7:27 AM EST 5:27 PM EST
Civil Twilight 6:59 AM EST 5:55 PM EST
Nautical Twilight 6:27 AM EST 6:27 PM EST
Astronomical Twilight 5:55 AM EST 6:59 PM EST
Moon 1:49 PM EST (1/22) 3:47 AM EST (1/22)
Length of Visible Light 10h 56m
Length of Day
9h 59m
Waxing Gibbous, 82% of the Moon is Illuminated
Jan 22
Waxing Gibbous
Jan 26
Full
Feb 3
Last Quarter
Feb 10
New
Feb 17
First Quarter

Hourly Weather History & Observations

Time (EST) Temp. Windchill Dew Point Humidity Pressure Visibility Wind Dir Wind Speed Gust Speed Precip Events Conditions
12:15 AM 28.2 °F 19.5 °F 6.6 °F 40% 29.94 in 10.0 mi WNW 9.2 mph - N/A   Clear
12:35 AM 28.2 °F 22.0 °F 6.3 °F 39% 29.95 in 10.0 mi West 5.8 mph 16.1 mph N/A   Mostly Cloudy
12:55 AM 27.7 °F 17.1 °F 4.6 °F 38% 29.96 in 10.0 mi West 12.7 mph 18.4 mph N/A   Mostly Cloudy
1:15 AM 26.4 °F 15.5 °F 3.4 °F 37% 29.97 in 10.0 mi WNW 12.7 mph 16.1 mph N/A   Mostly Cloudy
1:35 AM 26.2 °F 16.4 °F 0.1 °F 32% 29.98 in 10.0 mi West 10.4 mph 23.0 mph N/A   Scattered Clouds
1:55 AM 25.7 °F 17.1 °F 0.1 °F 33% 29.99 in 10.0 mi West 8.1 mph 21.9 mph N/A   Clear
2:15 AM 24.3 °F 12.2 °F 3.4 °F 41% 30.00 in 10.0 mi NW 13.8 mph - N/A   Scattered Clouds
2:55 AM 23.2 °F 15.0 °F 0.5 °F 37% 30.01 in 10.0 mi WNW 6.9 mph - N/A   Scattered Clouds
3:15 AM 22.8 °F 13.6 °F -1.1 °F 35% 30.02 in 10.0 mi WNW 8.1 mph 19.6 mph N/A   Clear
3:35 AM 22.1 °F 13.7 °F -0.4 °F 38% 30.03 in 10.0 mi WNW 6.9 mph 17.3 mph N/A   Clear
3:55 AM 21.6 °F 14.0 °F -0.8 °F 38% 30.03 in 10.0 mi WNW 5.8 mph 17.3 mph N/A   Clear
4:15 AM 21.0 °F - 0.3 °F 41% 30.04 in 10.0 mi Calm Calm - N/A   Clear
4:35 AM 19.2 °F - 2.1 °F 47% 30.05 in 10.0 mi Calm Calm - N/A   Clear
4:55 AM 20.3 °F 5.2 °F -4.5 °F 33% 30.05 in 10.0 mi WNW 18.4 mph - N/A   Clear
5:15 AM 19.8 °F 10.8 °F -3.6 °F 36% 30.06 in 10.0 mi NW 6.9 mph 17.3 mph N/A   Clear
5:35 AM 18.1 °F - -0.4 °F 44% 30.07 in 10.0 mi Calm Calm - N/A   Clear
5:55 AM 17.2 °F 6.8 °F -0.8 °F 45% 30.08 in 10.0 mi West 8.1 mph - N/A   Clear
6:15 AM 18.5 °F 9.3 °F -3.8 °F 37% 30.09 in 10.0 mi WNW 6.9 mph 18.4 mph N/A   Clear
6:35 AM 18.5 °F 4.3 °F -5.8 °F 34% 30.10 in 10.0 mi WNW 15.0 mph 20.7 mph N/A   Clear
6:55 AM 18.3 °F 5.2 °F -7.2 °F 32% 30.11 in 10.0 mi WNW 12.7 mph 21.9 mph N/A   Clear
7:15 AM 17.4 °F 5.4 °F -7.1 °F 34% 30.12 in 10.0 mi NW 10.4 mph 16.1 mph N/A   Clear
7:35 AM 17.1 °F 8.7 °F -7.6 °F 33% 30.12 in 10.0 mi WNW 5.8 mph - N/A   Clear
7:55 AM 16.7 °F - -5.6 °F 37% 30.13 in 10.0 mi Calm Calm - N/A   Clear
8:15 AM 16.9 °F - -6.0 °F 36% 30.14 in 10.0 mi Calm Calm - N/A   Clear
8:35 AM 18.1 °F - -6.7 °F 33% 30.15 in 10.0 mi Calm Calm - N/A   Clear
8:55 AM 18.9 °F 9.8 °F -7.2 °F 31% 30.16 in 10.0 mi NNW 6.9 mph - N/A   Clear
9:15 AM 19.2 °F 10.2 °F -8.0 °F 30% 30.16 in 10.0 mi NW 6.9 mph - N/A   Clear
9:35 AM 19.4 °F - -9.4 °F 28% 30.18 in 10.0 mi Calm Calm - N/A   Clear
9:55 AM 20.5 °F 9.2 °F -9.0 °F 27% 30.19 in 10.0 mi NW 10.4 mph 17.3 mph N/A   Clear
10:15 AM 20.8 °F 9.7 °F -9.4 °F 26% 30.19 in 10.0 mi NW 10.4 mph 20.7 mph N/A   Clear
10:35 AM 21.4 °F 7.5 °F -9.8 °F 25% 30.19 in 10.0 mi NW 16.1 mph 24.2 mph N/A   Clear
10:55 AM 21.7 °F 10.2 °F -9.9 °F 24% 30.19 in 10.0 mi NW 11.5 mph 19.6 mph N/A   Clear
11:15 AM 22.1 °F 10.0 °F -9.4 °F 25% 30.19 in 10.0 mi NW 12.7 mph 21.9 mph N/A   Clear
11:35 AM 22.6 °F 11.9 °F -9.8 °F 24% 30.18 in 10.0 mi NW 10.4 mph 17.3 mph N/A   Clear
11:55 AM 23.0 °F 13.9 °F -9.6 °F 24% 30.16 in 10.0 mi NW 8.1 mph 18.4 mph N/A   Clear
12:15 PM 24.1 °F 14.4 °F -9.6 °F 23% 30.15 in 10.0 mi NW 9.2 mph 18.4 mph N/A   Clear
12:35 PM 23.7 °F 15.6 °F -10.3 °F 22% 30.14 in 10.0 mi WNW 6.9 mph - N/A   Clear
12:55 PM 24.6 °F 17.7 °F -10.1 °F 22% 30.14 in 10.0 mi WNW 5.8 mph 18.4 mph N/A   Clear
1:15 PM 25.0 °F 16.3 °F -10.1 °F 21% 30.13 in 10.0 mi WNW 8.1 mph - N/A   Clear
1:35 PM 26.4 °F 16.0 °F -9.2 °F 21% 30.13 in 10.0 mi West 11.5 mph 16.1 mph N/A   Clear
1:55 PM 25.9 °F 16.6 °F -10.3 °F 20% 30.12 in 10.0 mi WNW 9.2 mph 16.1 mph N/A   Clear
2:15 PM 26.2 °F 19.6 °F -9.8 °F 20% 30.12 in 10.0 mi WSW 5.8 mph - N/A   Clear
2:35 PM 26.4 °F 18.9 °F -10.3 °F 20% 30.12 in 10.0 mi West 6.9 mph - N/A   Clear
2:55 PM 26.4 °F 17.3 °F -10.3 °F 20% 30.12 in 10.0 mi WNW 9.2 mph - N/A   Clear
3:15 PM 26.2 °F 17.8 °F -10.7 °F 20% 30.12 in 10.0 mi West 8.1 mph - N/A   Clear
3:35 PM 26.6 °F 18.2 °F -9.9 °F 20% 30.13 in 10.0 mi WNW 8.1 mph 16.1 mph N/A   Clear
3:55 PM 26.2 °F 17.1 °F -10.1 °F 20% 30.13 in 10.0 mi WNW 9.2 mph 18.4 mph N/A   Clear
4:15 PM 26.1 °F 18.4 °F -9.6 °F 21% 30.14 in 10.0 mi West 6.9 mph - N/A   Clear
4:35 PM 25.7 °F 19.0 °F -9.0 °F 22% 30.14 in 10.0 mi West 5.8 mph - N/A   Clear
4:55 PM 24.8 °F 16.9 °F -8.0 °F 24% 30.15 in 10.0 mi WSW 6.9 mph - N/A   Clear
5:15 PM 23.9 °F 15.8 °F -7.8 °F 25% 30.16 in 10.0 mi West 6.9 mph - N/A   Clear
5:35 PM 22.8 °F 12.9 °F -6.7 °F 27% 30.17 in 10.0 mi WSW 9.2 mph - N/A   Clear
5:55 PM 22.1 °F - -6.9 °F 28% 30.17 in 10.0 mi Calm Calm - N/A   Clear
6:15 PM 21.2 °F - -6.0 °F 30% 30.19 in 10.0 mi Calm Calm - N/A   Clear
6:35 PM 20.8 °F - -5.8 °F 31% 30.19 in 10.0 mi Calm Calm - N/A   Clear
6:55 PM 19.4 °F - -4.7 °F 34% 30.20 in 10.0 mi Calm Calm - N/A   Clear
7:15 PM 19.6 °F - -5.1 °F 34% 30.20 in 10.0 mi Calm Calm - N/A   Clear
7:35 PM 19.8 °F - -4.7 °F 34% 30.20 in 10.0 mi Calm Calm - N/A   Clear
7:55 PM 20.1 °F 15.2 °F -5.1 °F 33% 30.21 in 10.0 mi West 3.5 mph - N/A   Clear
8:15 PM 19.9 °F 13.4 °F -5.3 °F 33% 30.22 in 10.0 mi West 4.6 mph - N/A   Clear
8:35 PM 19.6 °F - -4.9 °F 34% 30.21 in 10.0 mi Calm Calm - N/A   Clear
8:55 PM 19.2 °F 12.5 °F -4.5 °F 35% 30.21 in 10.0 mi West 4.6 mph - N/A   Clear
9:15 PM 18.9 °F 13.7 °F -4.2 °F 36% 30.21 in 10.0 mi West 3.5 mph - N/A   Clear
9:35 PM 16.7 °F - -1.8 °F 44% 30.22 in 10.0 mi Calm Calm - N/A   Clear
9:55 PM 15.6 °F - -1.3 °F 47% 30.23 in 10.0 mi Calm Calm - N/A   Clear
10:15 PM 16.5 °F - -1.3 °F 46% 30.23 in 10.0 mi Calm Calm - N/A   Clear
10:35 PM 15.8 °F - -0.0 °F 50% 30.23 in 10.0 mi Calm Calm - N/A   Clear
10:55 PM 14.2 °F - 1.4 °F 57% 30.23 in 10.0 mi Calm Calm - N/A   Clear
11:15 PM 13.5 °F - 1.8 °F 60% 30.23 in 10.0 mi Calm Calm - N/A   Clear
11:55 PM 12.2 °F - 2.7 °F 66% 30.23 in 10.0 mi Calm Calm - N/A   Clear